Location: Casper
(42.8670°N, 106.3130°W)
Time: 13:36:19
(UTC-07:00)

Daily predictions for brighter satellites

Satellite Brightness Start Highest point End
(mag) Time Altitude Azimuth Time Altitude Azimuth Time Altitude Azimuth
Okean 1 Rocket 3.6 18:15:05 10° SSE 18:19:12 37° E 18:23:20 10° NNE
Cosmos 2181 Rocket 4.1 18:14:21 10° N 18:20:34 60° E 18:26:50 10° SSE
Cosmos 1484 Rocket 4.1 18:20:35 10° S 18:24:23 47° W 18:28:10 10° NNW
Cosmos 1025 Rocket 4.0 18:20:43 10° NNE 18:24:26 26° ENE 18:28:07 10° SE
USA 229 DEB 4.1 18:19:04 10° NNW 18:25:57 49° NE 18:32:56 10° ESE
USA 229 4.1 18:19:10 10° NNW 18:26:03 49° NE 18:33:01 10° ESE
Cosmos 2151 Rocket 4.1 18:22:29 10° SSW 18:26:58 67° W 18:31:30 10° N
METEOR-M 4.1 18:22:15 10° SSE 18:27:32 66° ENE 18:32:50 10° N
Cosmos 1709 Rocket 4.0 18:22:38 10° S 18:28:51 80° E 18:35:01 10° N
Spot 2 Rocket 4.3 18:27:17 10° SE 18:31:38 30° ENE 18:36:00 10° N
Cosmos 2184 Rocket 4.4 18:31:11 10° SSE 18:36:56 39° E 18:42:38 10° NNE
SKYMED 2 4.3 18:34:15 10° N 18:38:32 57° WNW 18:42:46 10° SSW
Cosmos 2322 4.0 18:32:56 10° NNW 18:38:41 76° WSW 18:44:21 10° SSE
USA 215 4.3 18:35:36 10° NE 18:41:33 39° NNW 18:47:30 10° W
SJ-6B 2.7 18:41:26 10° SSE 18:45:23 70° ENE 18:49:16 10° N
Cosmos 405 Rocket 4.0 18:42:16 10° NNE 18:45:32 23° ENE 18:48:31 11° ESE
Cosmos 1850 Rocket 4.0 18:41:24 10° S 18:46:41 72° ESE 18:52:01 10° NNE
Cosmos 2208 Rocket 4.0 18:41:28 10° NNW 18:46:56 72° ENE 18:52:18 10° SSE
HJ-1C 3.7 18:45:05 10° SSE 18:48:18 44° ENE 18:51:32 10° N
Meteor 1-19 Rocket 4.4 18:43:45 10° NNW 18:49:28 84° W 18:55:16 10° S
H-2A R/B 3.4 18:48:21 10° SE 18:51:42 33° ENE 18:55:07 10° N
ALOS 2.3 18:47:18 10° SSE 18:51:52 58° ENE 18:56:28 10° N
CZ-2D R/B 4.2 18:49:35 11° SE 18:52:36 26° ENE 18:55:50 10° NNE
Cosmos 2237 Rocket 3.1 18:48:08 10° N 18:53:02 28° NE 18:56:29 16° ESE
NOSS 0 Rocket 4.4 18:48:07 10° NNW 18:53:54 40° NE 18:59:13 12° ESE
Cosmos 2333 4.2 18:49:56 10° NNW 18:55:40 70° ENE 19:01:25 10° SSE
Okean 1-7 Rocket 3.5 18:51:21 10° N 18:55:54 75° E 19:00:21 10° SSE
Cosmos 2297 Rocket 3.5 18:52:58 10° SE 18:56:24 17° E 18:56:25 17° E
Cosmos 2237 4.4 18:51:40 10° NNW 18:57:25 80° WSW 19:03:07 10° SSE
COSMOS 2428 2.7 18:51:52 10° NNW 18:57:36 82° ENE 19:03:17 10° SSE
Meteor 2-4 Rocket 3.6 18:57:41 10° N 19:03:14 89° W 19:08:38 10° S
Okean 2 3.7 19:00:09 10° N 19:04:11 45° ENE 19:08:12 10° SSE
Cosmos 2219 Rocket 2.3 18:59:57 10° NNW 19:05:27 54° ENE 19:10:46 11° SE
Cosmos 2360 Rocket 3.6 19:00:15 10° NW 19:05:30 40° WSW 19:10:44 10° S
Gbstr 26 Del rocket 3.3 19:01:47 10° WSW 19:05:32 51° NNW 19:08:15 17° NE
FREGAT/IRIS 3.6 19:03:01 10° S 19:06:01 51° W 19:09:03 10° NNW
Cosmos 2285 Rocket 4.0 19:00:55 10° NNW 19:07:21 69° ENE 19:13:43 10° SSE
Abrixas rocket 2.2 19:05:00 10° WSW 19:08:21 88° NW 19:09:57 29° ENE
Meteor 1-23 Rocket 4.2 19:03:21 10° N 19:09:11 84° E 19:14:55 10° S
Helios 1B rocket 3.2 19:07:46 10° NE 19:11:24 29° E 19:15:01 10° SSE
Helios 1A 3.5 19:10:06 23° ESE 19:12:04 36° ENE 19:15:53 10° N
Cosmos 2219 3.3 19:08:51 10° SSW 19:14:36 83° WNW 19:20:23 10° NNE
Cosmos 1536 3.4 19:11:53 10° SSW 19:15:49 60° W 19:19:46 10° N
Atlas Centaur 2 4.4 19:13:24 10° S 19:16:23 13° SSE 19:18:27 11° SE
Cosmos 2227 Rocket 2.8 19:11:35 10° SSE 19:16:33 33° ESE 19:20:36 14° NE
SAR-Lupe-1 4.4 19:19:06 38° E 19:19:36 41° ENE 19:22:59 10° N
SAR-Lupe-4 3.7 19:19:14 33° SE 19:20:26 49° ENE 19:23:55 10° N
BREEZE-M DEB (TANK) 2.6 19:19:02 10° WNW 19:21:39 66° SSW 19:25:26 20° SE
Cosmos 1455 Rocket 3.5 19:20:02 10° SSE 19:24:04 37° E 19:28:06 10° NNE
Cosmos 841 Rocket 4.3 19:21:38 10° N 19:26:08 29° ENE 19:26:32 29° ENE
Cosmos 1437 3.9 19:23:42 10° N 19:25:47 30° NNE 19:25:47 30° NNE
SL-16 R/B 3.3 19:24:13 10° N 19:28:50 25° NE 19:29:17 24° ENE
BREEZE-M DEB (TANK) 3.6 19:28:20 10° WNW 19:31:41 88° SSW 19:36:28 25° ESE
ATLAS CENTAUR R/B 2.4 19:28:28 10° SSW 19:31:14 29° S 19:31:14 29° S
Cosmos 1763 Rocket 3.8 19:31:57 10° N 19:36:51 43° ENE 19:37:34 41° E
Resurs 01 Rocket 2.1 19:33:17 10° S 19:37:39 62° W 19:42:02 10° NNW
Resurs 1-3 4.2 19:43:36 10° S 19:47:54 57° W 19:52:15 10° NNW
GPS 2-04 Rocket1 4.0 19:44:48 10° WSW 19:48:36 31° S 19:48:43 31° S
Cosmos 2333 Rocket 2.2 19:45:57 10° NNW 19:51:44 82° WSW 19:55:04 26° SSE
Cosmos 1980 3.6 19:46:55 10° NNW 19:52:36 83° ENE 19:54:45 40° SSE
GEOS 3 Rocket 3.5 19:49:28 24° NE 19:52:46 86° SE 19:58:03 10° SW
OTV 4 3.2 19:53:18 10° SW 19:53:54 14° SW 19:53:54 14° SW
Cosmos 1892 Rocket 4.2 19:55:50 10° NNW 20:00:06 55° W 20:03:26 16° SSW
USA 186 4.4 20:03:15 13° NNW 20:03:15 13° NNW 20:03:37 10° NNW
Cosmos 2082 3.6 20:13:00 10° SSW 20:18:44 89° WNW 20:20:08 54° NNE
Cosmos 1295 Rocket 4.3 20:17:49 60° SSE 20:18:55 75° E 20:25:14 10° N
ERS-1 Rocket 4.1 20:25:09 34° N 20:25:09 34° N 20:28:05 10° N
Cosmos 332 Rocket 4.2 20:18:56 10° NNW 20:22:54 58° NNW 20:22:54 58° NNW
Envisat 3.1 20:27:13 70° WNW 20:27:13 70° WNW 20:31:56 10° NNW
NOSS 3-1 (A) 3.9 20:22:16 10° NW 20:29:55 89° ENE 20:31:36 61° SE
Cosmos 371 Rocket 4.3 20:28:41 10° NNW 20:31:50 40° NNW 20:31:50 40° NNW
USA 32 4.4 20:29:31 10° NNW 20:34:40 60° W 20:34:42 60° W
ATLAS 2AS CENTAUR R/B 3.7 20:28:04 10° NNW 20:35:33 39° NE 20:35:33 39° NE
Cosmos 2237 Rocket 3.0 20:31:51 10° NW 20:37:18 47° WSW 20:38:22 42° SW
Cosmos 2297 Rocket 2.7 20:34:09 10° SSW 20:38:27 52° SW 20:38:27 52° SW
NOSS 3-1 (C) 4.4 20:40:07 10° NW 20:47:38 60° WSW 20:49:43 48° S
Cosmos 2219 Rocket 4.3 20:44:46 10° NW 20:48:57 22° W 20:52:36 12° SW
Cosmos 2227 Rocket 3.4 20:55:15 10° SW 21:00:30 38° WNW 21:02:45 28° NNW
SL-16 R/B 3.5 21:07:45 10° NNW 21:11:12 36° NW 21:11:12 36° NW
ATLAS 2AS CENTAUR R/B 4.5 22:19:10 10° NW 22:22:59 30° NW 22:22:59 30° NW
